[[{"header":{"parameterUnit":"m.s-1","parameterCategory":1,"la1":30.2991,"la2":30.254,"lo1":-89.0895,"lo2":-89.0444,"dy":0.0017,"dx":0.0017,"nx":28,"ny":28,"refTime":"2024-06-10T03:00:00:Z","depth":0,"parameterNumber":2,"parameterNumberName":"U-component_of_WINDS"},"data":[0,0,0,0,0,0,0,0,0,0,0,0,0,0,0,0,0,0,0,0,0,0,0,0,0,0,0,0,0,0,0,0,0,0,0,0,0,0,0,0,0,0,0,0,0,0,0,0,0,0,0,0,0,0,0,0,0,0,-2.1114,-2.1114,0,-2.1116,-2.1116,-2.1116,-2.0989,-2.0985,-2.0982,-2.0979,-2.0986,-2.0989,-2.0993,0,0,0,0,0,0,0,0,0,0,0,0,0,-2.1003,-2.1006,-2.1114,-2.1114,-2.1114,-2.1116,-2.1116,-2.1116,-2.0989,-2.0985,-2.0981,-2.0977,-2.0985,-2.0989,-2.0993,0,0,0,0,0,0,0,0,0,0,0,0,0,-2.1033,-2.1007,-2.1114,-2.1051,-2.1045,-2.1116,-2.1116,-2.1116,-2.099,-2.0985,-2.098,-2.0975,-2.0984,-2.0988,-2.0993,-2.1126,0,0,-2.1009,-2.1011,0,0,0,0,0,0,0,0,-2.1032,-2.1038,-2.106,-2.1055,-2.1049,-2.1047,-2.108,-2.112,-2.0992,-2.1011,-2.0979,-2.0973,-2.1011,-2.1013,-2.1025,-2.1127,-2.1127,-2.1009,-2.1012,-2.1014,-2.1016,0,0,0,0,0,0,0,-2.103,-2.1037,-2.1115,-2.1061,-2.1054,-2.1024,-2.1022,-2.1087,-2.104,-2.1009,-2.1,-2.1002,-2.1007,-2.102,-2.1024,-2.1127,-2.1009,-2.1014,-2.1017,-2.1019,-2.1338,-2.1343,0,0,0,0,0,0,-2.1036,-2.1036,-2.1115,-2.1115,-2.1028,-2.103,-2.1028,-2.1053,-2.1039,-2.1031,-2.1006,-2.0996,-2.1014,-2.1018,-2.1024,-2.1179,-2.1014,-2.1019,-2.1022,-2.1333,-2.1339,-2.1345,0,0,0,0,0,0,-2.1034,-2.1044,-2.1115,-2.1073,-2.1079,-2.1037,-2.1066,-2.1056,-2.1069,-2.1036,-2.1027,-2.1028,-2.101,-2.1017,-2.1101,-2.1178,-2.1021,-2.1026,-2.1326,-2.1335,-2.1342,-2.1491,0,0,0,0,0,0,-2.1031,-2.1044,-2.1094,-2.1075,-2.1082,-2.1192,-2.107,-2.1059,-2.1077,-2.1064,-2.1055,-2.1048,-2.1007,-2.1095,-2.1107,-2.1182,-2.103,-2.1319,-2.133,-2.134,-2.1479,-2.1503,-2.1524,0,0,0,0,0,-2.1028,-2.1136,-2.1097,-2.1107,-2.1143,-2.1196,-2.1201,-2.1149,-2.1084,-2.1134,-2.1113,-2.1049,-2.1167,-2.1104,-2.1117,-2.1195,-2.1314,-2.1327,-2.1339,-2.1469,-2.1498,-2.1523,0,0,0,0,0,0,-2.1167,-2.1133,-2.1088,-2.1193,-2.1199,-2.1175,-2.1236,-2.1182,-2.1207,-2.1194,-2.113,-2.1129,-2.1224,-2.1217,-2.1148,-2.1322,-2.1229,-2.1245,-2.1324,-2.1351,-2.1373,-2.1374,-2.1034,0,0,0,0,0,-2.1209,-2.1254,-2.1222,-2.1318,-2.1323,-2.1279,-2.1301,-2.126,-2.1264,-2.1266,-2.1251,-2.1258,-2.1296,-2.1323,-2.1357,-2.1476,-2.1473,-2.1536,-2.1558,-2.1577,-2.1592,-2.1655,-2.1683,-2.1386,-2.1386,-2.1385,0,0,-2.1298,-2.1285,-2.1317,-2.1346,-2.1345,-2.1394,-2.1282,-2.1339,-2.1375,-2.1275,-2.1354,-2.1343,-2.1346,-2.145,-2.1494,-2.1447,-2.1673,-2.1593,-2.1608,-2.1612,-2.1671,-2.1699,-2.1724,-2.1394,-2.1393,-2.1391,0,0,-2.1485,-2.1479,-2.1559,-2.156,-2.1559,-2.1529,-2.1549,-2.1533,-2.1522,-2.1599,-2.1525,-2.1568,-2.1635,-2.1641,-2.1653,-2.1842,-2.1784,-2.1854,-2.1972,-2.2035,-2.2058,-2.2079,-2.2148,-2.2173,-2.1869,-2.1869,-2.1869,0,-2.1597,-2.1667,-2.1607,-2.1669,-2.1684,-2.1593,-2.1674,-2.1678,-2.169,-2.1703,-2.1649,-2.1732,-2.1728,-2.1831,-2.1877,-2.1889,-2.191,-2.1856,-2.2059,-2.2079,-2.2098,-2.2163,-2.2188,-2.1878,-2.1877,-2.1876,-2.1875,0,-2.1804,-2.1854,-2.1918,-2.193,-2.1952,-2.2023,-2.1976,-2.2005,-2.1963,-2.1939,-2.202,-2.2012,-2.2042,-2.2063,-2.2023,-2.2162,-2.2132,-2.207,-2.1976,-2.2136,-2.2196,-2.222,-2.189,-2.1887,-2.1884,-2.1882,0,0,-2.208,-2.2057,-2.2082,-2.2086,-2.2079,-2.2117,-2.2184,-2.2212,-2.224,-2.225,-2.2306,-2.2365,-2.2307,-2.2321,-2.228,-2.2335,-2.2487,-2.2266,-2.2265,-2.2309,-2.264,-2.2689,-2.2718,-2.2448,-2.2452,-2.2456,-2.264,0,-2.2263,-2.2375,-2.2324,-2.2443,-2.2489,-2.2402,-2.2461,-2.2464,-2.2443,-2.248,-2.2458,-2.2501,-2.242,-2.2428,-2.2478,-2.2458,-2.2553,-2.2443,-2.2501,-2.2504,-2.2505,-2.2749,-2.28,-2.2975,-2.2663,-2.2667,-2.267,0,-2.2491,-2.251,-2.2634,-2.2618,-2.2635,-2.2689,-2.2711,-2.2746,-2.2748,-2.2729,-2.2744,-2.2691,-2.2757,-2.2661,-2.2752,-2.2679,-2.2699,-2.2693,-2.2698,-2.2703,-2.2598,-2.2762,-2.3029,-2.3056,-2.2706,-2.2703,-2.2701,0,-2.2683,-2.2739,-2.282,-2.2826,-2.2809,-2.2849,-2.2844,-2.284,-2.2861,-2.288,-2.2893,-2.292,-2.2936,-2.2959,-2.2915,-2.2849,-2.3013,-2.2914,-2.3001,-2.3002,-2.3041,-2.3039,-2.3317,-2.3051,-2.3051,-2.305,-2.305,0,-2.2893,-2.2973,-2.2905,-2.2956,-2.3042,-2.2982,-2.307,-2.3055,-2.3053,-2.3099,-2.3027,-2.3072,-2.3011,-2.3051,-2.3017,-2.3098,-2.3105,-2.3093,-2.3084,-2.3101,-2.3103,-2.3115,-2.3102,-2.3057,-2.3056,-2.3054,-2.3053,0,-2.3122,-2.308,-2.3163,-2.314,-2.3136,-2.3201,-2.3181,-2.3228,-2.3201,-2.3262,-2.3272,-2.3232,-2.3275,-2.3233,-2.3274,-2.3251,-2.3361,-2.3333,-2.336,-2.3353,-2.3443,-2.3436,-2.3739,-2.3776,-2.3486,-2.3489,-2.3491,0,-2.326,-2.3319,-2.3301,-2.3327,-2.3326,-2.3368,-2.3388,-2.3331,-2.3355,-2.3361,-2.3407,-2.3443,-2.347,-2.3544,-2.3519,-2.355,-2.3524,-2.3628,-2.3528,-2.3544,-2.3527,-2.3525,-2.3531,-2.3649,-2.3652,-2.3655,-2.3657,0,-2.351,-2.3486,-2.3517,-2.3541,-2.3567,-2.3583,-2.3594,-2.362,-2.3561,-2.3592,-2.3634,-2.3655,-2.3696,-2.3734,-2.3758,-2.3754,-2.3697,-2.3688,-2.371,-2.373,-2.3744,-2.3739,-2.3417,-2.3682,-2.368,-2.3678,-2.3677,-2.3676,-2.3698,-2.3747,-2.3742,-2.3779,-2.3781,-2.3793,-2.3835,-2.3814,-2.3848,-2.3876,-2.384,-2.3894,-2.3893,-2.3919,-2.3922,-2.3963,-2.3919,-2.3951,-2.3959,-2.3969,-2.3983,-2.3736,-2.3967,-2.3966,-2.3966,-2.3965,-2.3964,0,-2.3945,-2.3938,-2.3972,-2.3989,-2.4019,-2.396,-2.3969,-2.3999,-2.4046,-2.405,-2.4077,-2.4126,-2.4163,-2.4141,-2.4172,-2.421,-2.4184,-2.422,-2.4217,-2.4218,-2.4019,-2.3998,-2.424,-2.424,-2.424,-2.424,-2.424,-2.424,-2.4077,-2.4156,-2.4132,-2.4212,-2.4204,-2.4254,-2.4265,-2.4276,-2.4278,-2.4337,-2.4366,-2.435,-2.4344,-2.4374,-2.4406,-2.4398,-2.4414,-2.446,-2.4443,-2.4259,-2.4232,-2.4206,-2.4185,-2.4463,-2.4463,-2.4638,-2.464,-2.4641]},{"header":{"parameterUnit":"m.s-1","parameterCategory":1,"la1":30.2991,"la2":30.254,"lo1":-89.0895,"lo2":-89.0444,"dy":0.0017,"dx":0.0017,"nx":28,"ny":28,"refTime":"2024-06-10T03:00:00:Z","depth":0,"parameterNumber":3,"parameterNumberName":"V-component_of_WINDS"},"data":[0,0,0,0,0,0,0,0,0,0,0,0,0,0,0,0,0,0,0,0,0,0,0,0,0,0,0,0,0,0,0,0,0,0,0,0,0,0,0,0,0,0,0,0,0,0,0,0,0,0,0,0,0,0,0,0,0,0,-3.7034,-3.7034,0,-3.7039,-3.7039,-3.7039,-3.6958,-3.6956,-3.6954,-3.6952,-3.6956,-3.6958,-3.696,0,0,0,0,0,0,0,0,0,0,0,0,0,-3.6956,-3.6958,-3.7034,-3.7034,-3.7034,-3.7039,-3.7039,-3.7039,-3.6959,-3.6956,-3.6954,-3.6951,-3.6955,-3.6958,-3.696,0,0,0,0,0,0,0,0,0,0,0,0,0,-3.6978,-3.6959,-3.7034,-3.6995,-3.6992,-3.7038,-3.7039,-3.7039,-3.6959,-3.6956,-3.6953,-3.695,-3.6954,-3.6957,-3.6961,-3.7045,0,0,-3.697,-3.6972,0,0,0,0,0,0,0,0,-3.6977,-3.6981,-3.7001,-3.6998,-3.6994,-3.6995,-3.7012,-3.7041,-3.696,-3.6972,-3.6952,-3.6948,-3.6971,-3.6973,-3.6981,-3.7045,-3.7045,-3.697,-3.6972,-3.6974,-3.6975,0,0,0,0,0,0,0,-3.6976,-3.698,-3.7036,-3.7001,-3.6997,-3.6977,-3.6977,-3.7017,-3.699,-3.697,-3.6965,-3.6966,-3.6969,-3.6978,-3.698,-3.7045,-3.697,-3.6973,-3.6975,-3.6976,-3.7178,-3.7181,0,0,0,0,0,0,-3.698,-3.698,-3.7036,-3.7036,-3.6977,-3.6981,-3.698,-3.6998,-3.6989,-3.6984,-3.6969,-3.6962,-3.6974,-3.6977,-3.698,-3.7077,-3.6974,-3.6977,-3.6979,-3.7175,-3.7179,-3.7182,0,0,0,0,0,0,-3.6978,-3.6985,-3.7036,-3.7006,-3.7011,-3.6986,-3.7006,-3.7,-3.7008,-3.6988,-3.6982,-3.6983,-3.6972,-3.6976,-3.7029,-3.7077,-3.6978,-3.6981,-3.717,-3.7176,-3.7181,-3.7274,0,0,0,0,0,0,-3.6976,-3.6985,-3.7017,-3.7008,-3.7013,-3.7085,-3.7009,-3.7002,-3.7014,-3.7006,-3.7,-3.6996,-3.6969,-3.7025,-3.7032,-3.7079,-3.6983,-3.7166,-3.7173,-3.7179,-3.7266,-3.7281,-3.7294,0,0,0,0,0,-3.6974,-3.7043,-3.7019,-3.7027,-3.7053,-3.7088,-3.7091,-3.7059,-3.7018,-3.705,-3.7037,-3.6996,-3.707,-3.7031,-3.7039,-3.7087,-3.7163,-3.7171,-3.7178,-3.726,-3.7278,-3.7294,0,0,0,0,0,0,-3.7059,-3.7041,-3.7015,-3.7083,-3.7088,-3.7075,-3.7114,-3.708,-3.7096,-3.7088,-3.7048,-3.7047,-3.7107,-3.7102,-3.7059,-3.7168,-3.7109,-3.7119,-3.7169,-3.7186,-3.72,-3.7199,-3.6986,0,0,0,0,0,-3.7086,-3.7117,-3.7099,-3.7162,-3.7165,-3.7139,-3.7154,-3.7129,-3.7132,-3.7133,-3.7124,-3.7128,-3.7152,-3.7169,-3.719,-3.7265,-3.7263,-3.7303,-3.7317,-3.7328,-3.7337,-3.7376,-3.7393,-3.7208,-3.7208,-3.7208,0,0,-3.7142,-3.7136,-3.7158,-3.7179,-3.7179,-3.7211,-3.7141,-3.7179,-3.7202,-3.7139,-3.7188,-3.7182,-3.7184,-3.7249,-3.7277,-3.7247,-3.7387,-3.7338,-3.7348,-3.735,-3.7386,-3.7403,-3.7419,-3.7213,-3.7212,-3.7212,0,0,-3.7259,-3.7259,-3.731,-3.7312,-3.7314,-3.7296,-3.7309,-3.73,-3.7294,-3.7343,-3.7296,-3.7323,-3.7366,-3.7369,-3.7376,-3.7495,-3.7458,-3.7503,-3.7577,-3.7615,-3.7629,-3.7642,-3.7684,-3.77,-3.7512,-3.7512,-3.7513,0,-3.7328,-3.7375,-3.734,-3.7381,-3.7391,-3.7336,-3.7387,-3.7391,-3.7399,-3.7408,-3.7374,-3.7426,-3.7424,-3.7488,-3.7517,-3.7525,-3.7538,-3.7503,-3.763,-3.7643,-3.7654,-3.7693,-3.7709,-3.7518,-3.7517,-3.7517,-3.7516,0,-3.7459,-3.7493,-3.7534,-3.7544,-3.7559,-3.7604,-3.7576,-3.7596,-3.757,-3.7555,-3.7606,-3.7601,-3.762,-3.7634,-3.7609,-3.7695,-3.7676,-3.7637,-3.7577,-3.7678,-3.7714,-3.7729,-3.7526,-3.7524,-3.7522,-3.7521,0,0,-3.7631,-3.7621,-3.7636,-3.764,-3.7638,-3.7663,-3.7706,-3.7724,-3.7741,-3.7749,-3.7784,-3.7821,-3.7785,-3.7794,-3.7768,-3.7802,-3.7896,-3.7759,-3.7758,-3.7784,-3.7989,-3.8018,-3.8036,-3.7872,-3.7874,-3.7877,-3.7989,0,-3.7744,-3.7817,-3.7787,-3.7863,-3.7892,-3.784,-3.7878,-3.788,-3.7868,-3.7891,-3.7878,-3.7905,-3.7856,-3.786,-3.7891,-3.7878,-3.7937,-3.787,-3.7903,-3.7904,-3.7903,-3.8055,-3.8086,-3.8192,-3.8003,-3.8005,-3.8007,0,-3.7886,-3.79,-3.7979,-3.7971,-3.7982,-3.8017,-3.8031,-3.8054,-3.8056,-3.8045,-3.8054,-3.8022,-3.8063,-3.8004,-3.806,-3.8015,-3.8027,-3.8022,-3.8026,-3.8027,-3.7961,-3.806,-3.8225,-3.8241,-3.8029,-3.8028,-3.8026,0,-3.8003,-3.8041,-3.8092,-3.8097,-3.809,-3.8115,-3.8113,-3.8111,-3.8124,-3.8137,-3.8145,-3.8163,-3.8172,-3.8186,-3.8159,-3.8119,-3.8218,-3.8157,-3.821,-3.821,-3.8232,-3.8231,-3.8401,-3.8242,-3.8241,-3.8241,-3.8241,0,-3.8132,-3.8182,-3.8144,-3.8176,-3.823,-3.8195,-3.825,-3.8242,-3.8241,-3.827,-3.8227,-3.8255,-3.8217,-3.8242,-3.8221,-3.827,-3.8275,-3.8267,-3.826,-3.827,-3.8271,-3.8277,-3.8268,-3.8245,-3.8244,-3.8244,-3.8243,0,-3.827,-3.8247,-3.83,-3.8289,-3.8287,-3.8328,-3.8317,-3.8346,-3.8331,-3.8368,-3.8375,-3.8352,-3.8378,-3.8353,-3.8378,-3.8363,-3.8429,-3.8412,-3.8428,-3.8423,-3.8477,-3.8472,-3.8656,-3.8678,-3.8505,-3.8507,-3.8508,0,-3.8354,-3.8391,-3.8384,-3.84,-3.8401,-3.8428,-3.8441,-3.8408,-3.8423,-3.8428,-3.8456,-3.8479,-3.8496,-3.854,-3.8525,-3.8544,-3.8527,-3.859,-3.853,-3.8538,-3.8527,-3.8525,-3.8528,-3.8602,-3.8604,-3.8606,-3.8608,0,-3.8505,-3.8492,-3.8512,-3.8529,-3.8546,-3.8558,-3.8566,-3.8582,-3.8547,-3.8567,-3.8593,-3.8606,-3.8632,-3.8655,-3.8669,-3.8667,-3.8632,-3.8627,-3.864,-3.865,-3.8657,-3.8653,-3.8461,-3.8623,-3.8621,-3.862,-3.8619,-3.8619,-3.8618,-3.8648,-3.8648,-3.8672,-3.8675,-3.8683,-3.8709,-3.8698,-3.8719,-3.8738,-3.8717,-3.875,-3.875,-3.8766,-3.8767,-3.8792,-3.8765,-3.8784,-3.8789,-3.8794,-3.8801,-3.8654,-3.8795,-3.8794,-3.8794,-3.8793,-3.8793,0,-3.8766,-3.8763,-3.8786,-3.8798,-3.8817,-3.8783,-3.879,-3.8808,-3.8837,-3.8841,-3.8858,-3.8889,-3.8911,-3.8898,-3.8916,-3.8939,-3.8923,-3.8945,-3.8942,-3.8942,-3.8825,-3.8811,-3.8957,-3.8957,-3.8957,-3.8957,-3.8957,-3.8957,-3.8845,-3.8894,-3.8881,-3.8931,-3.8927,-3.8959,-3.8966,-3.8973,-3.8976,-3.9012,-3.903,-3.9021,-3.9018,-3.9036,-3.9055,-3.9051,-3.9059,-3.9087,-3.9077,-3.8967,-3.8951,-3.8935,-3.8922,-3.9089,-3.9089,-3.9192,-3.9193,-3.9194]}]]